Terug naar catalogus

COSMOS 886 DEB

ActiefLEO
NORAD 9953·DEBRIS·🇷🇺 Russia

Gelanceerd Dec 27, 1976 vanaf Baikonur Cosmodrome

Loading…

Volgende Passages (komende 24 uur)

TLE

VersSource: Space-Track

Epoch: Sep 13, 2026, 07:13 UTC

1 09953U 76126AT  26256.30114246  .00001215  00000-0  54434-3 0  9992
2 09953  65.8437 228.6730 0841071 160.7112 202.7901 13.14220639339948

Volg COSMOS 886 DEB in realtime met AllMySat

Download on the App Store